Weather History for Port Angeles, WA

Change the Weather History Date:

Sunday, August 18, 2013

  Actual Average Record
Temperature  
Mean Temperature 62 °F -  
Max Temperature 70 °F 68 °F 80 °F (1977)
Min Temperature 57 °F 50 °F 42 °F (1973)
Degree Days  
Heating Degree Days 2    
Growing Degree Days 12 (Base 50)    
Moisture  
Dew Point 55 °F    
Average Humidity 78    
Maximum Humidity 93    
Minimum Humidity 59    
Precipitation  
Precipitation 0.00 in - - ()
Sea Level Pressure  
Sea Level Pressure 30.11 in    
Wind  
Wind Speed 4 mph (West)    
Max Wind Speed 13 mph    
Max Gust Speed 16 mph    
Visibility 10 miles    
Events      
Averages and records for this station are not official NWS values.
T = Trace of Precipitation, MM = Missing Value Source: NWS Daily Summary

Daily Weather History Graph

Daily Weather History Graph

Search for Another Location

Airport:

Trip Planner

Search our weather history database for the weather conditions in past years. The results will help you decide how hot, cold, wet, or windy it might be!

Date:

Astronomy

Aug. 18, 2013 Rise Set
Actual Time 6:13 AM PDT 8:21 PM PDT
Civil Twilight 5:39 AM PDT 8:55 PM PDT
Nautical Twilight 4:57 AM PDT 9:36 PM PDT
Astronomical Twilight 4:09 AM PDT 10:23 PM PDT
Moon 6:35 PM PDT (8/18) 3:22 AM PDT (8/18)
Length of Visible Light 15h 15m
Length of Day
14h 08m
Waxing Gibbous, 93% of the Moon is Illuminated
Aug 18
Waxing Gibbous
Aug 20
Full
Aug 28
Last Quarter
Sep 5
New
Sep 12
First Quarter

Hourly Weather History & Observations

Time (PDT) Temp. Dew Point Humidity Pressure Visibility Wind Dir Wind Speed Gust Speed Precip Events Conditions
12:53 AM 60.1 °F 55.0 °F 83% 30.09 in 10.0 mi Calm Calm - N/A   Overcast
1:12 AM 60.1 °F 55.0 °F 83% 30.09 in 10.0 mi West 3.5 mph - N/A   Overcast
1:53 AM 59.0 °F 55.0 °F 87% 30.08 in 10.0 mi WNW 4.6 mph - N/A   Overcast
2:21 AM 59.0 °F 55.0 °F 87% 30.08 in 10.0 mi Calm Calm - N/A   Overcast
2:36 AM 59.0 °F 55.0 °F 87% 30.08 in 10.0 mi Calm Calm - N/A   Overcast
2:53 AM 59.0 °F 55.0 °F 87% 30.09 in 10.0 mi West 5.8 mph - N/A   Overcast
3:21 AM 59.0 °F 55.0 °F 87% 30.08 in 10.0 mi Calm Calm - N/A   Overcast
3:53 AM 59.0 °F 55.0 °F 87% 30.09 in 10.0 mi Calm Calm - N/A   Overcast
4:53 AM 59.0 °F 55.0 °F 87% 30.09 in 10.0 mi Calm Calm - N/A   Overcast
5:53 AM 57.0 °F 54.0 °F 89% 30.09 in 10.0 mi Calm Calm - N/A   Overcast
6:27 AM 57.0 °F 55.0 °F 93% 30.09 in 10.0 mi WSW 4.6 mph - N/A   Overcast
6:53 AM 59.0 °F 55.0 °F 87% 30.10 in 10.0 mi SW 3.5 mph - N/A   Overcast
7:53 AM 61.0 °F 55.0 °F 81% 30.10 in 10.0 mi WSW 4.6 mph - N/A   Overcast
8:53 AM 64.9 °F 55.0 °F 70% 30.10 in 10.0 mi Calm Calm - N/A   Partly Cloudy
9:53 AM 64.0 °F 55.0 °F 73% 30.11 in 10.0 mi Variable 4.6 mph - N/A   Clear
10:53 AM 66.0 °F 55.0 °F 68% 30.12 in 10.0 mi Variable 5.8 mph - N/A   Partly Cloudy
11:53 AM 64.0 °F 55.9 °F 75% 30.13 in 10.0 mi NNW 10.4 mph - N/A   Mostly Cloudy
12:53 PM 68.0 °F 55.9 °F 65% 30.13 in 10.0 mi NW 9.2 mph 16.1 mph N/A   Overcast
1:03 PM 66.9 °F 55.9 °F 68% 30.13 in 10.0 mi NW 8.1 mph - N/A   Overcast
1:53 PM 63.0 °F 57.0 °F 81% 30.14 in 10.0 mi Variable 4.6 mph - N/A   Overcast
2:53 PM 62.1 °F 55.9 °F 80% 30.15 in 10.0 mi WNW 8.1 mph - N/A   Overcast
3:53 PM 64.9 °F 55.0 °F 70% 30.14 in 10.0 mi NW 8.1 mph - N/A   Overcast
4:53 PM 66.9 °F 52.0 °F 59% 30.13 in 10.0 mi WNW 12.7 mph - N/A   Overcast
5:53 PM 66.0 °F 53.1 °F 63% 30.12 in 10.0 mi West 11.5 mph - N/A   Overcast
6:53 PM 64.9 °F 52.0 °F 63% 30.11 in 10.0 mi West 12.7 mph - N/A   Overcast
7:53 PM 64.0 °F 51.1 °F 63% 30.11 in 10.0 mi West 11.5 mph - N/A   Overcast
8:53 PM 61.0 °F 52.0 °F 72% 30.11 in 10.0 mi West 6.9 mph - N/A   Overcast
9:53 PM 60.1 °F 54.0 °F 80% 30.11 in 10.0 mi West 6.9 mph - N/A   Mostly Cloudy
10:53 PM 60.1 °F 54.0 °F 80% 30.11 in 10.0 mi West 8.1 mph - N/A   Overcast
11:53 PM 57.9 °F 54.0 °F 87% 30.09 in 10.0 mi West 3.5 mph - N/A   Partly Cloudy